Temperature
5 5 6 6 6 6 6 6 6 6 6 6 7 7 7 7 7 7 7 7 7 7 7 7 7 7 7 7 7 7 7 7 7 7 6 6 6 6 6 6 6 6 6
4 4 5 5 5 6 6 6 6 6 6 6 6 6 6 7 7 7 7 7 7 7 7 7 7 7 7 7 7 7 7 6 6 6 6 5 5 5 5 5 5 5 5
3 4 4 4 5 5 5 5 5 5 5 5 5 5 6 6 6 6 6 6 6 6 7 6 6 6 6 6 6 6 7 6 6 6 6 5 5 5 5 5 5 5 5
3 3 4 4 4 5 5 5 5 5 5 5 5 5 5 5 5 6 6 6 6 6 6 6 6 6 6 6 6 6 6 6 6 5 5 5 5 5 4 4 4 5 5
3 3 3 3 4 4 4 4 4 4 4 4 4 4 5 5 5 5 5 5 5 5 5 6 6 6 6 6 6 5 5 5 5 5 5 5 5 5 5 4 4 4 4
2 2 3 3 3 3 3 3 4 4 4 4 4 4 4 4 4 4 4 5 5 5 5 5 5 5 5 5 5 5 5 5 5 5 5 5 5 5 5 4 4 4 4
2 2 2 2 3 3 3 3 3 3 3 3 3 3 3 3 4 4 4 4 4 4 4 5 5 5 5 5 5 5 5 4 4 4 4 4 4 4 4 4 3 3 3
1 1 2 2 2 2 2 2 2 3 3 3 3 2 2 3 3 3 4 4 4 4 4 4 4 4 4 4 4 4 4 4 4 4 4 4 4 4 4 4 3 2 2
1 1 1 1 2 2 2 2 2 2 2 2 2 2 2 2 3 3 3 3 3 3 4 4 4 4 4 4 4 4 4 4 3 3 3 3 3 3 3 3 3 2 2
1 1 1 1 1 1 1 1 1 2 2 1 1 1 2 2 2 2 3 3 3 3 3 3 3 3 3 3 3 3 3 3 3 3 3 2 2 3 2 2 2 2 2
0 0 0 0 1 1 1 1 1 1 1 1 1 1 1 1 2 2 2 2 2 2 2 2 2 2 2 2 3 3 3 3 3 2 2 2 2 2 2 2 1 1 1
-0 -0 -0 -0 -0 0 0 0 0 0 1 1 1 1 1 1 1 1 1 2 2 2 2 2 2 2 2 2 2 2 2 2 2 2 2 1 1 1 1 1 1 1 1
-1 -1 -1 -1 -1 -0 -0 -0 -0 -0 0 0 0 0 0 0 0 1 1 1 1 1 1 1 1 1 1 1 1 1 2 2 1 1 1 1 1 1 1 1 0 0 0
-2 -2 -1 -1 -1 -1 -1 -1 -1 -1 -1 -0 -0 -0 -0 -0 -0 -0 0 0 1 1 1 1 0 1 1 1 1 1 1 1 1 1 0 0 0 0 0 -0 -0 -0 -1
-2 -2 -2 -2 -2 -2 -2 -1 -1 -1 -1 -1 -1 -1 -1 -1 -1 -1 -0 -0 -0 -0 -0 -0 -0 -0 -0 -0 -0 -0 -0 -0 -0 -0 -0 -0 -0 -0 -1 -1 -1 -1 -1
-3 -3 -3 -3 -2 -2 -2 -2 -2 -2 -2 -2 -2 -2 -1 -1 -1 -1 -1 -1 -1 -1 -1 -1 -1 -1 -1 -1 -1 -1 -1 -1 -1 -1 -1 -1 -1 -1 -1 -1 -2 -2 -2
-3 -3 -3 -3 -3 -3 -3 -2 -2 -2 -2 -2 -2 -2 -2 -2 -2 -2 -2 -2 -2 -2 -2 -2 -2 -1 -2 -2 -2 -2 -2 -2 -1 -1 -1 -2 -2 -2 -2 -2 -2 -2 -2
-4 -4 -4 -4 -4 -3 -3 -3 -3 -3 -3 -3 -3 -3 -2 -2 -2 -2 -2 -2 -2 -2 -2 -2 -2 -2 -2 -2 -3 -3 -2 -2 -2 -2 -2 -2 -2 -2 -3 -3 -3 -3 -3
-4 -4 -4 -4 -4 -4 -4 -4 -4 -3 -3 -3 -3 -3 -3 -3 -3 -3 -3 -3 -3 -3 -3 -3 -3 -3 -3 -3 -3 -3 -3 -3 -3 -3 -3 -3 -3 -3 -3 -4 -4 -4 -4
-4 -4 -4 -5 -5 -4 -4 -5 -4 -4 -4 -4 -4 -4 -4 -4 -3 -4 -4 -4 -4 -4 -4 -4 -4 -4 -4 -4 -4 -4 -4 -4 -4 -4 -4 -4 -4 -4 -4 -4 -5 -5 -5
-5 -5 -5 -5 -5 -5 -5 -5 -5 -5 -5 -5 -5 -5 -5 -5 -4 -4 -4 -4 -5 -5 -5 -5 -5 -4 -4 -5 -5 -5 -5 -5 -5 -5 -5 -5 -5 -5 -5 -5 -5 -5 -6
-6 -6 -6 -6 -6 -6 -6 -6 -6 -6 -6 -6 -5 -5 -5 -5 -5 -5 -5 -5 -5 -5 -5 -5 -5 -5 -5 -5 -5 -5 -5 -5 -6 -6 -6 -6 -6 -6 -6 -6 -6 -6 -6
-7 -7 -7 -6 -6 -6 -6 -6 -6 -6 -6 -6 -6 -6 -6 -6 -6 -6 -6 -6 -6 -6 -6 -6 -6 -6 -6 -6 -6 -6 -6 -6 -6 -6 -7 -7 -7 -7 -7 -7 -7 -7 -7
-7 -7 -7 -7 -7 -7 -7 -7 -7 -7 -7 -7 -7 -7 -7 -7 -7 -7 -7 -7 -7 -7 -7 -7 -7 -7 -7 -7 -7 -7 -7 -7 -7 -7 -7 -7 -7 -7 -7 -7 -8 -8 -8
-8 -8 -8 -8 -8 -8 -8 -8 -8 -8 -8 -8 -8 -7 -7 -7 -7 -7 -7 -7 -7 -7 -8 -8 -8 -8 -8 -8 -8 -7 -7 -7 -7 -8 -8 -8 -8 -8 -8 -8 -8 -8 -9
-8 -8 -8 -8 -8 -8 -8 -8 -8 -8 -8 -8 -8 -8 -8 -8 -8 -8 -8 -8 -8 -8 -8 -8 -8 -8 -8 -8 -8 -8 -8 -8 -8 -8 -8 -9 -9 -9 -9 -9 -9 -9 -9
Wind_Speed
2 1 2 3 3 3 3 3 3 3 3 3 4 4 3 2 3 4 6 8 8 9 9 7 7 7 6 6 6 6 7 4 5 5 4 4 4 4 3 4 5 6 6
1 1 1 2 3 3 3 3 2 3 3 2 2 3 3 2 3 4 5 7 8 8 8 8 7 6 5 6 6 6 4 3 3 4 4 2 2 2 2 1 2 3 4
3 2 1 2 3 3 3 3 2 3 2 2 2 2 2 2 2 2 2 4 7 7 7 8 8 7 6 6 6 7 6 5 2 2 4 4 3 1 1 1 1 1 2
2 2 2 2 3 4 3 3 3 2 3 3 3 4 4 3 3 3 3 3 6 7 7 8 8 7 6 6 6 5 4 7 5 2 1 2 4 3 1 1 1 0 0
4 3 3 3 2 2 3 3 3 2 2 3 4 4 3 1 2 2 3 2 4 5 7 7 8 7 6 6 6 5 5 5 6 4 2 2 1 2 3 2 1 1 1
3 2 1 1 1 0 1 2 3 2 2 2 3 4 4 3 3 3 4 3 2 3 5 6 7 7 6 6 7 6 6 5 5 4 4 4 3 3 3 3 3 2 2
2 2 1 1 0 0 0 1 2 2 2 3 3 4 4 5 6 5 5 5 3 3 4 5 6 6 6 7 7 6 6 6 6 6 4 4 3 4 4 4 2 1 1
2 2 2 2 2 2 1 1 2 2 3 3 3 3 4 4 4 4 4 5 5 4 5 6 6 6 6 7 6 5 5 5 6 6 5 4 3 4 4 4 4 2 1
2 2 2 2 2 2 2 2 2 2 2 3 3 3 3 4 4 4 4 4 4 5 6 6 6 5 6 6 6 5 5 5 5 5 5 4 3 4 3 4 5 5 3
2 2 2 2 2 2 2 2 2 3 3 2 3 3 4 4 4 4 4 4 5 5 6 5 6 5 5 6 5 4 5 6 5 4 5 4 3 3 3 4 4 4 4
3 2 2 1 1 1 1 1 2 2 2 2 3 3 3 3 4 4 5 5 4 6 6 6 6 6 5 5 5 4 5 6 5 5 6 5 4 4 4 4 4 3 3
2 2 1 1 1 1 1 2 2 2 3 3 3 3 2 3 3 4 4 4 5 6 6 6 5 6 5 5 5 6 6 7 7 6 6 5 4 5 4 4 4 4 3
2 1 0 1 1 2 2 2 3 3 3 2 2 3 3 3 4 4 4 4 4 5 5 5 6 6 6 5 5 5 5 6 6 6 6 6 5 5 4 5 5 4 3
2 1 2 2 3 3 3 3 3 3 2 2 2 3 3 4 4 3 3 4 4 4 5 6 6 5 5 5 5 5 5 5 5 5 6 6 7 7 6 5 6 5 4
3 3 3 3 3 3 3 3 3 3 2 2 2 3 3 3 3 3 3 3 4 4 5 5 5 4 4 5 5 5 5 5 5 4 5 5 6 7 6 5 6 6 5
4 4 4 4 4 4 4 4 3 3 3 2 3 2 2 2 3 3 3 3 3 3 4 5 5 5 4 6 7 6 5 5 5 5 4 4 5 6 7 7 7 8 7
4 4 4 4 4 4 4 4 4 3 2 2 2 2 2 3 3 3 3 3 3 3 4 4 5 5 5 6 7 7 5 5 5 5 4 3 4 4 4 5 6 6 7
4 4 4 5 5 4 4 4 3 2 1 1 2 2 2 2 2 2 3 3 3 3 4 4 4 4 4 6 6 6 4 4 4 4 5 5 4 4 4 4 3 3 2
4 4 4 4 4 4 4 2 2 1 1 1 2 2 3 3 2 2 3 3 3 3 3 3 4 5 4 5 5 4 3 3 3 3 4 4 5 6 6 5 4 3 2
2 2 2 2 3 3 2 1 2 1 2 2 2 2 3 3 3 3 3 2 2 2 2 2 3 3 4 5 5 5 3 3 2 2 2 4 5 6 7 5 5 5 4
2 2 1 2 2 2 1 1 1 2 2 2 1 1 2 3 3 2 2 2 2 2 2 2 1 2 3 4 4 5 4 4 3 3 2 3 5 6 6 5 5 6 4
1 1 1 2 2 2 0 1 2 2 1 1 1 1 2 2 2 3 2 2 3 3 2 2 1 0 1 2 3 4 4 4 4 3 3 3 5 5 5 5 5 6 4
1 1 1 2 2 2 1 1 2 1 1 1 1 1 1 2 2 3 3 3 3 3 2 2 1 0 0 1 2 3 3 3 2 2 3 3 3 3 2 3 4 3 3
2 1 0 1 2 2 2 1 1 1 1 1 1 1 2 2 2 2 2 3 3 3 3 2 2 1 0 1 0 1 1 2 2 2 2 2 2 2 1 1 1 2 2
2 1 1 1 2 2 2 1 1 1 1 1 1 1 2 2 2 2 1 2 2 3 3 3 3 3 2 2 2 2 2 2 3 3 2 2 2 2 2 1 1 1 2
1 1 1 1 1 1 1 1 1 1 2 2 1 1 2 2 2 2 2 2 2 2 2 3 2 2 2 2 1 1 2 2 4 4 3 2 2 2 2 2 1 1 1
Wind_Direction
263 155 162 157 142 132 134 141 143 144 141 154 160 159 167 172 166 153 156 155 151 150 145 141 141 140 139 143 135 131 120 112 121 99 74 37 36 46 46 63 72 70 74
46 85 125 149 155 151 143 137 145 151 155 161 172 169 161 176 177 160 158 159 156 158 157 151 152 148 141 144 144 140 140 143 152 131 124 98 13 2 10 30 78 70 71
196 199 183 184 173 164 166 170 167 155 146 127 115 112 107 117 142 164 176 174 167 168 164 159 156 154 151 162 164 160 154 161 185 153 144 152 191 210 327 350 51 89 80
211 205 202 206 202 199 180 170 171 150 148 144 152 151 166 183 192 186 187 178 172 168 168 163 162 163 162 167 175 169 166 161 170 174 133 146 154 156 179 294 326 1 156
213 209 211 213 214 200 185 179 167 155 146 157 166 169 166 183 166 164 169 176 173 173 172 170 165 168 171 172 173 170 173 175 174 172 155 120 98 123 156 200 246 306 267
228 222 211 185 30 100 168 175 170 172 167 163 175 183 178 167 161 178 181 189 189 180 180 176 173 174 177 180 180 178 179 181 177 174 172 168 166 174 166 184 202 230 268
222 226 211 190 136 124 184 196 187 193 188 185 194 202 198 186 189 193 192 192 194 198 200 185 183 182 185 186 182 179 187 186 181 183 186 183 181 165 159 161 172 206 267
224 223 219 206 212 218 219 217 211 212 204 204 213 212 202 199 205 201 198 198 201 201 195 190 191 189 186 184 181 179 191 185 187 187 183 183 187 173 166 162 156 164 255
236 233 233 214 215 220 220 221 227 230 222 222 220 217 211 207 208 207 206 203 199 194 189 189 188 188 185 184 179 189 190 186 190 186 184 189 191 181 171 165 165 167 194
251 254 242 233 231 232 241 239 237 233 232 230 225 228 218 218 211 203 209 210 204 188 185 189 188 186 184 183 179 191 188 186 191 185 183 193 190 178 174 174 172 171 175
243 243 254 260 259 288 276 262 251 249 246 241 235 229 221 215 209 207 213 208 201 186 186 192 187 186 186 183 185 194 189 189 191 189 188 198 183 181 184 177 173 173 163
256 241 234 276 308 285 275 272 269 261 253 246 232 226 216 207 208 212 209 203 199 190 187 189 189 187 187 186 189 195 192 191 193 193 188 196 187 186 188 185 185 186 179
297 303 290 275 274 275 275 277 277 272 272 251 233 221 208 203 212 215 208 198 191 191 183 183 192 190 191 192 197 197 196 196 196 192 191 195 184 196 195 192 192 188 186
285 290 295 292 289 287 282 278 280 276 272 252 218 211 210 209 210 208 205 198 187 191 187 190 194 192 193 194 195 197 195 195 197 196 196 195 191 197 195 197 196 182 175
304 299 292 294 300 302 297 292 289 286 275 242 214 217 215 210 201 200 200 191 191 194 191 188 190 189 193 195 192 195 193 194 196 199 202 201 199 201 200 200 190 179 178
294 302 305 302 300 298 299 297 292 287 270 229 223 210 199 199 199 198 191 187 194 195 188 188 187 193 205 205 203 195 191 192 194 198 200 205 206 208 214 217 206 193 186
275 284 290 290 286 289 288 283 282 282 258 226 219 201 199 201 201 195 185 190 199 196 193 192 189 195 204 205 208 205 186 189 195 194 190 200 207 207 204 218 217 214 215
272 277 283 293 301 299 300 296 293 277 249 225 207 191 188 197 197 188 191 199 198 199 195 194 192 195 204 207 206 201 179 185 194 194 192 191 192 194 188 179 177 188 215
258 267 275 287 298 302 298 300 302 285 231 231 219 205 194 188 187 191 198 204 194 195 196 193 193 194 202 203 200 193 171 181 192 189 186 184 185 197 193 172 169 175 198
285 285 299 310 303 307 307 293 279 272 256 256 241 217 198 189 193 196 198 199 186 186 187 191 192 193 199 203 194 187 171 180 185 181 187 199 196 200 197 176 170 184 195
300 309 312 306 297 306 318 290 289 275 276 283 248 181 190 193 188 181 182 170 155 150 157 169 180 189 204 205 198 195 180 181 180 183 186 199 208 212 212 203 185 195 181
306 317 317 316 322 324 339 287 284 294 320 10 98 150 165 163 156 158 159 149 146 145 146 146 148 208 220 221 210 209 201 183 172 184 187 200 213 221 223 207 195 195 172
271 293 288 318 331 339 5 266 293 317 12 64 90 117 124 135 143 151 148 141 141 147 152 155 164 197 202 225 232 212 201 190 164 172 188 195 202 216 206 198 199 180 147
273 289 295 309 316 335 352 304 300 347 86 91 84 111 120 112 113 132 141 147 157 160 161 165 173 183 200 204 214 177 183 177 156 145 160 160 139 117 111 137 111 111 149
274 257 245 266 297 329 334 324 337 92 107 107 103 110 126 129 120 112 139 152 177 178 172 180 179 175 194 214 213 171 160 163 165 136 119 116 115 122 114 105 108 121 137
261 253 251 268 304 332 329 335 347 129 133 121 115 125 113 118 121 120 91 68 97 121 144 154 153 170 172 165 156 151 153 144 140 120 120 125 131 147 155 152 148 154 165
Height
1487 1488 1489 1491 1492 1493 1494 1495 1497 1498 1500 1502 1504 1506 1508 1511 1514 1516 1518 1520 1522 1524 1526 1528 1530 1531 1533 1535 1537 1539 1540 1542 1544 1546 1548 1550 1552 1553 1554 1555 1555 1556 1557
1485 1485 1486 1488 1489 1490 1491 1492 1494 1495 1497 1499 1501 1503 1506 1508 1510 1513 1515 1517 1519 1521 1523 1525 1527 1529 1530 1532 1534 1536 1538 1539 1542 1543 1545 1547 1550 1551 1552 1553 1553 1554 1555
1482 1482 1483 1484 1485 1486 1488 1489 1491 1493 1495 1497 1499 1501 1503 1504 1506 1508 1511 1514 1516 1518 1520 1522 1524 1525 1527 1529 1530 1532 1534 1536 1539 1541 1542 1544 1545 1547 1549 1549 1550 1551 1552
1479 1480 1480 1481 1482 1483 1485 1487 1489 1490 1492 1493 1495 1496 1497 1499 1502 1504 1507 1510 1512 1515 1517 1519 1520 1522 1524 1526 1528 1529 1531 1533 1535 1537 1539 1541 1541 1543 1544 1546 1547 1548 1549
1477 1477 1477 1478 1480 1481 1482 1484 1486 1487 1489 1490 1492 1493 1494 1497 1499 1502 1504 1506 1509 1511 1513 1515 1517 1519 1521 1522 1524 1526 1528 1530 1531 1533 1534 1536 1537 1538 1539 1541 1543 1544 1545
1474 1475 1476 1477 1477 1478 1480 1481 1483 1484 1486 1487 1489 1490 1491 1493 1495 1497 1499 1502 1504 1507 1509 1511 1513 1515 1517 1518 1520 1522 1524 1526 1528 1530 1531 1532 1533 1535 1536 1537 1538 1540 1541
1472 1472 1472 1473 1474 1475 1477 1478 1480 1481 1483 1484 1485 1487 1489 1490 1492 1494 1496 1498 1500 1502 1505 1507 1508 1510 1512 1515 1516 1518 1520 1522 1524 1526 1527 1529 1531 1532 1533 1534 1535 1536 1537
1470 1470 1470 1471 1472 1473 1474 1475 1476 1478 1480 1481 1482 1484 1486 1487 1489 1490 1492 1494 1496 1498 1501 1503 1504 1506 1508 1510 1512 1514 1516 1518 1519 1521 1523 1525 1527 1528 1529 1531 1532 1532 1533
1468 1468 1468 1469 1469 1470 1471 1472 1473 1474 1476 1477 1479 1480 1482 1483 1485 1487 1489 1490 1492 1495 1497 1499 1500 1502 1503 1506 1507 1509 1511 1513 1514 1516 1518 1520 1522 1524 1525 1527 1528 1530 1529
1466 1467 1467 1467 1467 1468 1468 1469 1470 1471 1472 1474 1475 1476 1478 1480 1482 1483 1485 1487 1488 1490 1493 1494 1496 1497 1499 1501 1503 1504 1506 1508 1509 1511 1513 1515 1517 1518 1520 1522 1523 1525 1526
1465 1465 1465 1465 1465 1465 1466 1467 1467 1468 1469 1470 1471 1473 1474 1476 1477 1479 1481 1483 1484 1486 1488 1490 1491 1493 1494 1496 1498 1499 1501 1503 1504 1506 1508 1509 1511 1513 1515 1517 1518 1520 1521
1463 1463 1463 1463 1462 1462 1463 1463 1464 1464 1465 1466 1468 1469 1470 1471 1473 1475 1477 1479 1480 1482 1483 1485 1487 1488 1490 1491 1493 1495 1496 1497 1499 1501 1502 1504 1506 1508 1510 1511 1513 1514 1516
1462 1461 1461 1460 1460 1460 1460 1460 1460 1461 1461 1462 1464 1465 1466 1467 1469 1470 1472 1474 1476 1477 1479 1481 1482 1483 1485 1487 1488 1490 1491 1492 1494 1495 1497 1499 1501 1503 1504 1506 1508 1509 1511
1461 1459 1458 1458 1458 1457 1457 1457 1457 1457 1458 1459 1460 1461 1462 1464 1465 1467 1468 1470 1471 1473 1474 1476 1478 1479 1480 1482 1484 1485 1486 1488 1489 1491 1493 1495 1496 1498 1500 1501 1502 1504 1505
1459 1457 1457 1456 1455 1454 1454 1454 1454 1454 1454 1455 1456 1457 1458 1460 1462 1463 1465 1466 1468 1469 1470 1472 1473 1475 1476 1478 1479 1480 1481 1483 1485 1487 1488 1490 1491 1493 1494 1496 1497 1499 1500
1457 1456 1455 1454 1453 1452 1451 1450 1450 1450 1450 1451 1452 1453 1455 1456 1458 1459 1461 1462 1464 1465 1466 1467 1469 1470 1472 1473 1475 1476 1477 1478 1480 1482 1483 1485 1487 1488 1490 1491 1493 1494 1495
1456 1454 1453 1451 1450 1449 1448 1447 1447 1447 1447 1447 1448 1450 1451 1452 1454 1456 1457 1458 1459 1461 1462 1463 1465 1466 1468 1469 1471 1472 1473 1474 1475 1477 1479 1480 1482 1483 1484 1486 1487 1488 1490
1453 1452 1450 1449 1448 1447 1446 1445 1444 1444 1443 1443 1444 1446 1447 1449 1450 1452 1453 1454 1456 1457 1458 1459 1461 1462 1464 1465 1467 1468 1469 1470 1471 1472 1474 1476 1477 1479 1480 1481 1482 1483 1485
1450 1449 1448 1447 1445 1444 1443 1442 1441 1441 1440 1440 1441 1442 1444 1445 1446 1448 1449 1451 1452 1453 1455 1456 1457 1458 1460 1461 1462 1463 1464 1465 1467 1468 1470 1471 1473 1474 1476 1477 1477 1479 1480
1447 1446 1445 1444 1443 1442 1440 1440 1439 1438 1438 1438 1438 1439 1441 1442 1443 1444 1446 1448 1449 1450 1451 1452 1454 1455 1456 1457 1458 1459 1460 1461 1462 1464 1465 1467 1468 1470 1471 1473 1473 1474 1476
1444 1444 1442 1441 1440 1439 1438 1437 1436 1436 1436 1436 1436 1437 1438 1439 1440 1441 1443 1444 1446 1447 1448 1449 1451 1452 1453 1454 1455 1456 1457 1457 1458 1459 1461 1463 1464 1466 1467 1469 1470 1471 1472
1442 1440 1439 1438 1438 1437 1435 1434 1434 1434 1434 1434 1434 1435 1436 1436 1437 1438 1440 1441 1443 1444 1445 1446 1447 1449 1450 1451 1452 1453 1454 1455 1455 1456 1458 1459 1461 1462 1464 1465 1466 1467 1468
1439 1438 1437 1436 1435 1434 1433 1432 1432 1432 1432 1432 1432 1433 1434 1434 1435 1436 1437 1439 1440 1441 1442 1443 1444 1446 1447 1448 1449 1450 1451 1452 1453 1454 1455 1457 1458 1459 1461 1462 1463 1464 1464
1436 1435 1434 1433 1432 1432 1431 1431 1431 1430 1430 1430 1430 1431 1432 1432 1433 1434 1435 1436 1437 1438 1440 1441 1442 1443 1444 1445 1447 1447 1448 1449 1450 1451 1452 1454 1455 1456 1457 1459 1459 1460 1461
1433 1432 1432 1431 1430 1430 1430 1430 1429 1428 1428 1428 1429 1429 1430 1431 1431 1433 1434 1435 1436 1437 1438 1439 1440 1440 1442 1443 1445 1445 1446 1447 1448 1449 1450 1451 1452 1453 1454 1455 1456 1457 1458
1430 1430 1429 1429 1429 1429 1428 1428 1428 1427 1427 1427 1427 1428 1428 1429 1430 1431 1432 1434 1435 1436 1437 1438 1439 1439 1441 1441 1442 1443 1444 1445 1446 1447 1447 1448 1449 1450 1451 1452 1453 1454 1455